Location: Franzen
(48.6167°N, 15.3833°E)
Time: 10:20:46
(UTC+00:00)

Cosmos 1408 Rocket - Pass Details

Date: 22 April 2021
Orbit: 601 x 631 km, 82.6° (Epoch: 16 May)

Event Time Altitude Azimuth Distance (km) Brightness Sun altitude
Rises 19:50:19 0° 357° (N) 2,867 7.7 -16.3°
Reaches altitude 10° 19:52:42 10° 6° (N) 1,961 6.6 -16.6°
Maximum altitude 19:56:42 36° 73° (ENE) 976 4.3 -17.1°
Enters shadow 19:57:47 31° 105° (ESE) 1,079 4.3 -17.2°
